User: anonymous   Login
Location: Oshawa
(43.9000°N, 78.8670°W)
Time: 23:07:33
(UTC-05:00)
Language:

Iridium 46 - Orbit

View from above orbital plane
View from above orbital plane
View from above satellite
View from above satellite

Ground track
Ground track

The orbit data is extracted from the following two-line orbital elements,

1 24905U 97043C   15031.16356964  .00000350  00000-0  11794-3 0  1796
2 24905 086.3943 258.7323 0001926 101.6929 258.4483 14.34219950913411
Epoch (UTC): 31 January 2015 03:55:32
Eccentricity: 0.0001926
inclination: 86.3943°
perigee height: 776 km
apogee height: 779 km
right ascension of ascending node: 258.7323°
argument of perigee: 101.6929°
revolutions per day: 14.34219950
mean anomaly at epoch: 258.4483°
orbit number at epoch: 91341

The dashed part of the orbit path shows where the satellite is in the earth's shadow,  

DLR